Theta_e
292 285 281 278 280 283 286 287 287 288 288 286 281 278 278 278 281 286 288 290 289 284 282 285 285 285 286 288 290 291 290 291 290 290 290 289 290 290 288 288 288 288 289 291 290 289 289 290 290 290 290 289 289 290 289 288 287 285 285 286 284 285 285 285 283 282 282 281 282 282 281 281 282 283 283 283 283 283 284 284 283 283 283 283 283 284
291 285 283 284 286 287 287 287 288 288 286 284 279 278 280 281 280 285 288 290 290 284 280 282 284 285 287 288 289 290 290 289 290 290 290 289 289 290 288 288 288 288 290 289 288 289 289 288 289 289 289 290 288 288 288 287 286 285 285 285 284 284 284 284 283 282 281 282 282 281 281 281 281 281 281 281 282 283 283 283 283 283 283 283 282 283
286 283 284 289 289 289 288 287 286 286 285 281 284 280 278 279 283 287 288 289 289 285 281 282 282 285 286 288 289 290 290 289 290 290 291 290 289 289 289 288 287 287 287 287 287 288 287 288 288 288 288 288 288 288 287 286 286 285 284 284 284 284 284 284 283 282 281 282 282 282 281 281 281 282 282 282 282 282 282 282 282 282 282 282 282 282
283 285 289 290 289 288 287 286 285 283 282 281 280 279 279 282 278 276 281 287 289 285 281 281 282 285 286 287 289 290 290 290 291 291 291 292 289 289 290 288 287 287 286 287 286 286 286 287 287 288 288 287 287 287 286 286 285 285 284 283 283 283 283 284 282 284 282 283 283 282 282 282 281 280 282 281 282 281 282 281 281 281 281 281 281 281
284 288 291 289 288 288 285 285 284 281 279 280 280 277 277 280 280 280 279 285 282 281 285 282 280 280 283 286 287 289 290 291 292 291 290 289 290 290 290 288 288 287 287 286 286 286 286 286 286 287 288 287 286 286 286 285 285 284 283 283 283 282 283 283 282 281 282 282 280 281 281 281 280 280 279 279 279 280 281 281 280 280 281 281 280 280
287 290 291 288 289 286 283 283 283 282 277 278 282 282 283 281 280 281 282 283 279 277 284 283 276 273 278 284 286 288 289 289 290 291 289 289 289 288 289 288 288 289 288 287 286 286 286 286 286 287 287 286 286 286 286 285 285 283 283 282 282 282 283 282 281 281 281 280 280 279 278 277 277 276 277 276 277 278 278 278 280 280 280 280 280 279
288 290 289 287 287 285 283 283 284 282 279 277 283 281 282 279 280 280 280 279 273 276 279 284 277 275 278 282 285 286 286 286 290 288 288 289 289 288 289 288 287 287 287 287 287 285 286 286 286 286 285 285 285 286 286 285 284 283 283 282 282 282 283 282 280 281 281 280 279 279 278 278 277 276 277 278 279 278 279 279 278 279 280 279 279 279
289 288 287 288 287 283 282 282 284 284 277 279 283 281 279 280 280 280 277 277 277 279 282 285 280 276 274 279 281 282 284 285 286 287 288 288 289 288 289 288 287 287 287 287 286 285 285 286 285 285 285 285 285 285 285 283 283 282 282 281 282 282 282 280 280 280 280 279 279 278 278 279 277 277 276 278 278 279 279 277 277 278 278 279 279 278
287 285 285 285 283 283 283 285 286 284 283 283 282 282 281 281 280 281 278 278 278 279 277 278 280 277 272 278 280 283 284 282 281 283 286 287 289 289 288 287 287 288 287 287 286 285 286 286 286 285 284 284 285 285 285 283 282 282 282 281 281 281 280 279 280 280 279 280 279 278 278 277 277 278 278 278 278 277 278 276 277 277 277 278 278 278
287 287 287 286 283 283 284 284 284 285 284 284 283 281 280 282 281 281 278 279 277 276 270 276 280 275 276 278 282 280 282 281 280 283 285 287 288 288 288 287 288 287 286 287 285 285 286 286 286 285 284 284 284 284 285 283 282 281 281 281 280 280 280 279 279 279 279 279 279 278 277 276 276 277 277 277 276 276 276 275 275 276 276 276 276 277
288 292 290 286 286 286 285 286 284 286 287 287 284 283 280 280 280 280 278 278 275 269 271 278 281 279 274 277 280 281 281 280 280 282 284 286 287 288 288 287 286 287 286 286 285 286 286 286 286 284 283 284 283 283 283 282 281 281 280 279 279 280 279 279 278 278 278 278 278 277 277 276 275 276 276 275 275 275 275 274 274 275 275 276 276 276
284 285 287 287 290 289 287 287 290 287 287 286 282 282 279 280 278 278 276 276 270 268 273 278 280 281 272 276 279 281 279 280 283 283 285 285 286 287 288 287 286 285 285 284 284 285 285 285 284 283 283 283 282 282 282 281 280 280 280 279 278 279 278 278 278 278 278 278 277 277 277 276 276 276 275 274 274 274 274 274 274 274 274 274 275 275
284 285 286 288 289 289 285 282 286 284 285 285 283 282 278 272 273 269 271 269 270 272 278 277 280 278 276 280 285 279 281 283 281 285 287 286 286 286 287 286 286 286 284 284 284 283 284 283 283 282 282 282 281 281 281 281 280 279 279 278 278 278 277 277 278 278 277 277 277 277 277 276 277 276 275 274 274 274 274 273 273 273 273 273 273 274
280 284 284 287 286 288 286 282 281 281 282 282 280 276 269 267 265 265 265 272 269 277 279 280 279 278 278 281 282 282 284 285 285 285 286 286 286 287 288 286 286 287 285 283 283 282 283 283 282 282 281 281 280 280 281 280 280 279 278 277 278 277 277 277 277 277 277 277 277 277 277 276 276 275 275 274 274 274 274 274 273 273 273 273 273 273
275 277 282 285 283 287 284 283 284 283 281 281 282 281 275 271 268 268 267 268 269 275 279 280 275 273 277 283 282 284 283 285 286 286 285 286 286 287 286 286 287 286 284 284 283 282 283 283 281 281 281 280 280 279 280 279 278 278 277 277 277 277 277 276 277 277 276 276 276 277 277 276 276 276 275 274 275 274 273 273 273 273 273 273 273 273
282 279 283 287 286 286 285 285 283 282 281 280 282 280 278 275 275 271 270 271 267 271 273 273 277 280 281 285 285 286 285 287 286 287 286 288 289 286 287 287 288 287 286 285 283 283 283 282 281 280 281 281 280 279 279 278 278 277 277 276 277 277 276 276 277 276 276 276 276 276 276 275 276 277 275 275 275 274 274 273 273 273 273 273 273 273
277 282 286 288 286 282 285 286 284 284 278 283 279 276 280 279 279 272 275 278 277 271 272 274 278 280 284 284 285 287 286 288 286 287 286 288 289 287 287 288 288 288 287 285 284 282 282 281 281 281 280 280 280 279 279 278 277 276 276 276 276 276 276 276 276 276 276 276 275 276 275 275 275 274 274 273 273 273 273 273 273 273 273 273 273 273
276 278 280 285 286 286 284 284 285 285 284 279 277 280 283 281 277 276 272 268 268 267 272 276 274 278 277 277 282 283 283 286 285 286 288 288 288 289 289 288 288 288 287 286 285 283 282 281 281 281 281 280 279 279 278 277 277 276 276 275 276 276 275 275 276 276 276 275 275 275 275 275 274 274 274 273 273 273 273 273 272 273 272 272 272 273
280 274 281 286 285 287 286 286 284 286 287 285 283 281 281 272 274 274 271 269 268 266 270 273 272 277 276 279 280 284 284 286 286 286 287 288 288 290 288 288 288 288 287 286 284 283 282 281 281 280 281 281 279 279 278 278 277 276 275 276 275 275 275 275 276 275 275 275 275 276 275 274 274 274 273 274 274 273 272 272 272 272 272 272 272 272
281 276 277 283 286 287 283 282 279 282 285 286 285 284 281 277 275 273 271 269 270 270 270 272 273 276 276 275 281 284 286 286 286 286 287 288 289 290 288 289 288 288 287 287 284 283 282 282 281 280 280 280 280 280 279 277 276 275 275 274 275 275 274 275 274 275 274 274 274 275 274 274 274 274 273 273 273 272 272 272 272 272 271 271 272 271
280 278 272 278 282 285 281 281 278 278 277 280 278 276 279 277 279 278 277 274 272 266 266 267 270 275 282 281 284 287 287 287 287 288 288 289 290 289 288 289 289 288 287 287 284 282 282 282 281 281 280 280 281 281 280 277 276 275 275 274 274 274 274 274 274 274 274 274 274 274 273 273 273 273 273 272 272 272 272 272 272 271 272 272 271 271
277 278 276 278 277 278 279 281 282 281 279 278 277 275 277 275 274 271 274 274 274 273 269 269 272 278 286 288 289 287 288 287 288 288 289 289 290 288 288 289 289 288 287 287 283 282 282 281 281 281 281 281 281 281 279 277 275 275 274 274 274 274 274 273 274 273 274 274 274 273 273 273 273 272 272 272 272 272 271 271 271 271 271 270 271 271
281 278 277 275 278 281 282 283 281 282 283 282 281 281 277 273 273 269 271 270 271 272 272 272 270 277 286 285 287 287 287 288 289 288 289 291 292 289 289 289 288 288 288 286 283 282 282 281 281 281 280 279 280 280 278 276 275 275 274 274 274 274 273 273 273 273 273 273 273 273 273 272 272 272 272 271 271 271 271 271 271 271 270 270 270 271
286 277 274 277 280 279 281 281 281 279 283 283 282 280 278 277 275 276 271 270 271 271 272 270 271 278 285 284 286 286 287 288 289 288 290 291 292 289 288 287 288 288 287 285 283 282 282 281 280 280 279 280 280 278 277 275 275 274 274 274 274 273 273 273 273 273 273 273 272 272 272 272 272 271 271 271 271 270 270 271 270 271 270 270 270 270
279 279 278 272 271 274 274 276 279 280 282 279 278 277 277 276 274 272 274 272 273 271 276 271 270 276 284 285 287 287 288 289 289 290 289 290 290 288 287 287 288 288 286 284 282 282 281 280 280 279 280 280 280 279 277 275 274 274 273 273 273 273 273 273 273 273 273 272 272 272 271 271 271 270 270 270 270 270 270 270 270 270 270 270 269 270
280 278 276 272 270 271 272 272 274 275 273 278 279 279 278 277 274 276 275 271 271 273 276 271 273 283 289 290 289 288 288 289 289 289 289 290 290 286 287 287 288 287 285 283 281 280 279 280 279 279 279 280 280 278 276 274 274 273 273 273 274 273 273 273 273 273 272 272 271 271 271 271 270 270 270 270 270 270 270 270 269 269 269 270 269 269
276 278 280 274 270 272 276 278 279 282 279 275 274 276 276 276 275 273 270 270 273 272 273 278 280 283 285 287 288 289 289 288 289 289 289 289 288 286 286 286 287 286 284 283 281 280 280 279 279 279 279 280 280 278 276 274 274 273 273 273 273 273 273 273 272 272 272 272 271 271 270 270 270 270 270 270 270 270 270 269 269 269 269 269 269 269
274 274 275 278 276 279 280 280 282 283 280 281 278 277 274 276 276 277 277 276 276 274 276 279 280 278 283 286 287 288 288 288 289 289 289 288 287 286 287 286 288 284 283 281 280 279 279 279 278 278 279 280 280 279 276 275 274 273 272 272 273 273 272 273 272 272 271 271 271 270 270 270 270 270 270 270 270 269 269 269 269 269 269 269 268 268
274 274 274 275 273 278 280 281 282 280 280 280 280 277 276 275 275 276 277 280 280 276 277 283 281 280 284 286 287 288 288 288 288 289 289 290 287 287 286 285 284 282 282 281 280 279 279 279 278 278 279 280 280 279 276 275 273 273 272 272 272 272 272 272 272 271 271 271 270 270 270 270 270 270 270 269 269 269 269 269 269 269 269 269 268 269
275 272 271 273 277 279 280 280 280 279 278 278 278 279 280 277 277 279 280 279 280 279 282 282 282 282 284 286 287 288 290 289 290 289 289 289 288 285 284 284 284 282 281 281 281 279 279 279 278 278 279 279 279 278 276 274 273 272 272 272 272 272 272 272 271 271 270 270 270 270 270 269 269 269 269 269 269 268 268 268 268 268 268 268 268 268
276 275 281 274 275 280 280 279 278 279 277 280 282 280 280 280 279 279 279 279 278 279 281 281 280 280 286 288 288 290 289 289 289 289 289 288 287 285 284 283 283 282 281 281 280 279 280 279 278 278 279 280 279 277 275 273 273 272 272 272 272 272 272 271 271 270 270 270 270 269 269 269 269 269 268 269 269 268 268 268 268 268 267 267 268 268
275 274 272 272 274 277 277 278 280 279 279 278 280 281 279 278 275 278 276 279 278 279 280 278 277 281 287 287 288 288 288 288 289 288 288 287 286 285 284 283 282 281 281 281 280 279 279 279 277 278 279 279 278 276 273 273 272 272 271 271 271 272 272 271 270 270 269 269 269 269 269 268 268 268 268 268 268 268 268 268 267 267 267 267 267 267
273 273 273 271 273 271 277 277 280 279 277 275 276 278 280 278 279 279 279 279 282 283 279 278 282 287 288 287 288 290 289 289 288 289 288 286 286 285 285 283 282 281 281 280 280 279 279 278 277 278 279 279 278 276 274 273 272 272 272 271 271 271 271 270 270 269 269 269 269 268 268 268 268 268 268 268 268 268 267 267 267 266 266 266 267 267
272 273 274 273 273 270 275 278 278 275 271 273 284 283 284 284 282 281 282 283 284 285 284 285 287 289 288 290 289 289 289 289 289 289 289 288 289 285 284 283 282 282 281 281 280 279 278 278 278 279 279 278 277 276 274 273 272 272 272 272 271 271 270 269 269 269 268 268 268 268 268 268 267 267 268 268 268 267 267 266 266 266 266 266 267 266
273 272 273 270 273 272 273 277 274 268 271 279 284 286 285 285 284 284 284 284 284 285 286 286 288 289 290 289 289 289 289 289 289 289 289 289 286 286 285 283 283 281 282 280 279 279 278 278 278 278 279 278 277 276 274 272 272 272 272 271 271 270 269 269 268 268 268 268 268 268 267 267 267 267 267 267 267 266 266 266 266 266 266 266 266 266
271 274 272 275 270 271 271 268 269 271 280 285 285 285 285 286 284 284 283 285 286 287 287 285 287 288 289 289 290 289 288 289 287 288 288 286 285 286 284 284 282 282 281 280 280 279 278 278 278 278 278 279 277 275 274 271 271 271 271 271 271 270 269 268 268 267 268 267 267 267 267 267 267 267 267 266 266 265 265 265 265 265 266 266 266 266
274 272 273 274 272 272 269 271 276 279 279 279 285 287 284 285 283 283 276 284 285 285 286 286 288 288 289 289 289 288 285 285 286 288 283 283 285 284 285 283 283 282 281 280 280 280 279 278 278 278 279 277 276 275 273 271 271 271 270 270 269 269 268 268 267 267 267 267 267 267 267 267 266 266 265 265 265 264 264 265 265 265 266 265 265 265
278 275 276 274 273 274 273 271 271 269 270 274 281 285 289 288 287 283 281 282 288 287 287 287 286 288 288 288 287 285 284 287 286 285 284 284 284 285 282 283 282 281 281 281 279 278 278 277 277 278 278 276 275 274 273 271 271 270 270 269 269 268 268 267 267 267 267 267 267 267 267 267 266 265 265 264 264 264 264 265 265 265 265 264 264 264
279 277 272 272 273 271 271 270 267 268 274 279 281 283 286 287 285 281 280 280 283 283 287 287 287 287 287 287 287 284 285 284 285 287 286 284 284 283 284 284 283 281 281 281 280 279 278 277 277 277 277 276 275 274 272 271 270 270 269 269 268 268 267 267 267 267 266 266 267 267 266 266 265 265 265 264 264 264 263 264 264 265 265 265 264 264
274 273 273 274 271 270 268 270 269 269 275 280 280 284 287 285 284 282 275 275 280 287 287 285 287 288 288 286 285 285 284 284 286 290 284 284 285 285 285 284 281 281 281 280 280 280 278 277 277 277 276 276 275 274 271 270 270 269 268 268 268 267 266 266 266 267 267 266 266 266 265 265 265 265 264 264 263 264 264 263 264 264 264 264 264 264
271 273 272 273 268 272 275 269 268 275 281 283 285 284 285 286 284 276 273 283 279 283 287 286 287 288 286 286 284 285 286 290 292 290 283 282 283 283 283 283 283 282 282 280 280 280 277 276 277 277 277 277 275 274 273 271 269 268 268 268 267 266 266 267 266 266 265 265 265 265 265 265 264 264 264 264 264 264 263 263 263 263 263 262 263 263
270 269 272 269 270 271 270 271 275 275 281 282 286 287 286 284 274 275 284 284 284 285 285 286 287 287 285 287 287 288 291 290 289 284 282 283 284 284 284 282 281 280 280 280 279 278 277 276 277 277 277 276 274 273 273 271 269 268 267 266 266 266 267 266 265 265 264 264 264 264 264 264 264 263 264 263 263 262 262 263 263 262 262 262 262 262
274 273 271 268 271 272 270 269 271 272 278 286 287 285 287 279 281 286 285 285 286 287 288 287 286 288 286 288 287 289 289 288 287 287 285 284 283 283 283 282 282 281 280 279 278 278 278 277 277 277 276 275 274 273 273 271 269 268 266 266 266 267 265 265 264 264 263 263 262 261 262 262 262 262 262 262 262 261 261 262 261 261 261 261 261 262
276 277 271 273 275 274 270 271 273 282 280 287 286 283 282 286 292 290 286 289 291 289 288 288 286 287 287 288 289 288 287 287 287 286 284 283 284 284 283 283 283 282 280 280 280 278 278 278 278 277 277 275 274 273 273 271 269 267 266 266 266 265 265 264 264 263 262 260 260 260 261 261 261 261 260 260 261 261 260 260 260 260 260 261 261 262
280 279 277 279 277 279 277 279 285 286 282 287 288 291 292 291 289 289 288 289 289 290 287 286 289 288 286 288 288 288 287 286 288 288 286 285 284 284 284 283 282 282 281 280 279 278 278 279 278 278 276 275 274 273 272 272 269 267 265 265 265 264 263 262 260 260 259 258 258 259 260 260 261 261 260 259 259 258 260 260 260 260 260 262 263 263
280 281 280 283 281 280 283 287 290 289 290 289 290 291 291 291 291 289 289 289 290 291 290 290 290 289 287 286 287 286 286 288 287 286 285 284 284 285 284 283 282 282 282 281 279 278 278 278 278 277 276 275 274 273 273 272 270 267 266 265 264 264 262 259 258 257 257 257 257 258 258 258 260 261 261 260 260 260 258 259 259 260 261 262 263 264
281 282 283 281 279 280 280 282 282 288 289 288 290 291 288 289 290 291 289 290 291 291 290 288 289 289 289 286 287 289 289 287 286 286 285 284 284 284 284 284 283 282 282 281 280 278 278 277 277 277 276 275 274 273 273 272 271 269 266 264 264 263 259 257 256 257 256 256 256 257 258 257 259 261 261 260 260 260 260 260 260 261 262 263 264 264
281 283 283 283 281 281 284 288 288 288 285 287 289 289 289 290 290 289 290 290 291 290 288 290 288 287 285 287 287 288 288 288 286 287 286 285 285 285 284 284 283 282 282 282 280 279 278 277 277 277 276 275 276 274 273 272 271 269 266 264 263 260 258 256 256 256 255 255 256 256 257 257 261 260 259 260 260 260 259 260 259 261 263 263 264 265
283 283 280 279 280 283 284 286 288 288 287 288 290 290 290 290 290 290 289 289 288 288 289 287 286 288 286 289 287 286 287 287 287 287 286 286 285 284 285 285 284 284 283 281 279 278 278 278 278 278 277 276 276 274 273 272 271 268 266 264 261 258 255 255 257 255 254 255 256 256 259 257 256 257 258 258 260 260 259 258 261 263 264 266 267 268
282 283 282 280 282 281 282 286 285 283 285 288 288 287 288 288 287 288 289 288 288 289 289 288 289 286 286 287 287 287 287 288 288 285 286 286 286 285 285 285 284 283 283 282 280 279 279 278 278 278 277 277 276 274 273 272 271 267 266 263 259 257 256 256 254 253 253 254 255 256 257 258 256 256 257 257 257 258 260 263 267 266 265 265 270 271
284 284 282 278 276 282 288 289 285 286 287 289 290 290 287 286 285 288 290 290 290 289 288 287 288 288 287 287 286 287 287 288 288 286 285 286 286 286 286 285 284 283 283 281 279 277 278 279 278 278 277 277 275 274 272 272 270 267 265 262 260 258 255 254 255 255 254 257 256 258 258 257 256 256 256 256 256 256 257 258 260 266 269 270 270 270
Wind_Speed
2 12 7 2 3 3 4 1 2 4 3 1 3 4 2 2 2 2 1 2 2 1 3 5 4 4 4 7 7 7 4 3 1 1 1 2 3 4 2 3 1 3 3 2 3 4 4 5 5 5 5 5 5 6 8 9 10 9 13 9 12 11 11 10 11 12 12 12 11 9 10 11 11 10 11 10 10 10 10 11 12 12 11 12 13 13
9 10 6 2 2 4 5 5 4 4 4 2 3 2 0 1 1 2 1 1 1 2 3 2 4 7 7 6 7 5 5 5 4 1 1 2 4 4 2 2 2 2 2 4 4 3 4 4 5 5 4 5 7 7 9 10 11 8 11 9 10 10 10 9 10 10 10 9 9 10 10 10 11 10 10 11 10 11 10 10 11 11 12 13 13 13
11 9 3 2 2 3 4 6 5 4 2 4 0 1 2 1 2 3 1 1 0 2 6 2 5 12 5 7 5 7 7 4 5 4 1 1 4 5 2 1 3 4 4 4 2 3 3 4 5 5 5 4 5 6 8 8 10 7 9 9 10 10 10 8 11 11 10 9 9 10 9 10 8 8 9 9 9 10 10 9 11 10 11 12 12 13
8 7 8 4 3 5 7 7 8 7 6 4 5 4 1 2 3 3 2 2 1 2 2 2 6 11 7 4 6 5 7 2 4 5 2 0 3 4 4 2 3 3 4 4 3 4 3 4 4 5 6 5 5 7 7 9 9 7 9 9 10 10 9 8 11 10 9 9 8 8 8 9 8 9 8 9 10 10 9 11 11 10 11 13 12 13
5 3 5 3 3 5 5 7 9 6 1 2 4 2 0 2 2 2 3 3 1 2 1 3 5 6 4 1 1 4 1 4 3 2 2 4 4 3 3 3 2 3 4 3 4 4 4 5 4 6 7 6 7 7 8 9 8 7 10 9 9 9 9 8 10 11 9 8 6 7 5 5 6 5 6 7 9 11 11 12 12 12 12 13 12 13
7 5 2 4 4 5 6 8 5 1 1 2 1 1 2 2 2 4 4 6 8 3 0 1 6 2 4 3 5 4 1 3 1 0 2 4 5 4 5 0 2 3 1 4 4 3 4 4 4 6 6 7 6 7 7 6 6 8 9 8 9 7 8 8 10 10 9 9 10 11 11 13 11 11 11 12 13 12 11 12 12 13 12 13 12 12
1 4 6 3 2 4 4 1 1 2 0 2 4 4 1 1 1 0 3 4 4 2 3 1 3 7 5 2 4 4 2 4 0 1 3 4 5 4 4 0 1 2 3 3 2 3 4 4 5 5 5 5 6 6 6 5 6 8 8 6 8 7 7 8 9 10 9 9 9 10 10 9 10 11 9 9 9 10 9 10 11 11 11 12 12 12
5 9 11 9 7 5 6 8 2 2 1 3 1 4 2 1 0 0 3 3 2 2 4 1 2 2 7 7 5 3 3 4 4 5 5 6 5 4 4 1 0 1 1 1 2 3 3 3 4 4 5 5 5 5 6 4 5 8 8 7 8 7 7 8 8 9 9 9 9 10 9 10 10 10 11 11 9 9 10 11 11 10 10 11 10 10
2 5 7 10 7 6 4 3 5 1 0 1 2 3 1 2 1 2 2 0 1 2 5 4 3 1 3 6 2 0 3 5 7 7 7 6 5 5 5 2 0 1 1 1 2 3 3 3 4 4 5 4 4 4 6 4 5 7 6 6 6 7 6 7 8 9 9 9 9 8 8 10 8 10 9 8 9 9 9 11 11 10 10 9 9 9
1 1 1 4 3 4 5 5 3 3 5 2 2 2 2 2 2 2 1 1 2 2 4 2 1 0 8 7 4 1 1 6 6 7 8 7 5 5 6 3 1 0 1 0 4 3 3 2 3 3 4 4 3 4 4 4 4 6 5 6 7 8 5 7 8 8 9 9 8 9 9 11 10 10 9 8 9 9 9 10 11 10 9 9 9 9
1 1 5 4 1 2 4 5 3 2 3 1 3 2 3 2 1 1 3 1 2 2 3 3 1 3 5 7 6 3 4 2 4 5 6 5 5 5 6 3 1 1 1 1 4 3 2 2 3 4 3 2 3 4 4 4 5 6 4 5 6 7 6 7 8 8 9 8 8 8 9 10 11 12 10 10 10 9 10 10 11 11 10 9 9 8
3 2 2 2 2 4 1 3 0 0 1 4 5 6 4 3 3 2 2 2 3 4 3 3 1 1 2 8 5 6 3 4 4 6 8 7 6 6 5 3 2 2 2 2 3 3 2 3 3 3 3 2 3 4 5 3 4 5 4 5 6 6 6 7 7 8 8 8 8 8 8 10 10 11 10 11 11 11 11 11 11 10 9 9 9 9
1 2 2 7 3 4 3 3 7 5 8 10 8 9 8 2 5 3 6 6 1 1 4 2 2 3 4 8 9 4 5 5 6 7 9 7 6 5 5 3 3 2 1 3 3 2 2 2 1 2 2 3 4 4 5 5 5 5 4 5 6 7 6 8 7 8 8 8 8 8 8 8 8 9 10 10 10 10 10 10 11 11 10 10 10 9
2 2 5 5 5 3 4 6 7 6 6 8 6 2 5 4 4 3 3 2 2 6 5 3 1 4 5 8 6 6 7 9 7 9 8 6 6 5 5 3 3 1 2 4 3 3 2 1 1 2 3 3 3 4 4 4 4 4 4 4 5 6 5 7 7 7 8 8 7 8 7 8 8 8 9 9 9 10 9 9 10 10 9 10 10 11
4 4 3 3 1 2 3 1 1 2 2 2 2 2 3 4 2 1 1 2 4 7 10 7 0 3 7 8 2 8 5 6 7 6 6 6 6 6 4 3 3 1 2 4 3 3 2 1 2 3 3 2 2 3 4 4 4 4 4 4 6 6 6 8 8 7 8 8 7 7 7 8 7 8 8 8 8 9 10 9 10 10 9 9 10 10
1 4 3 2 1 1 1 1 2 2 0 1 2 5 6 0 3 1 4 2 3 5 7 4 2 4 6 3 2 2 3 5 4 5 4 6 6 6 1 4 3 2 3 3 3 3 1 2 3 3 2 2 2 2 3 4 4 4 4 4 5 5 6 7 8 7 7 7 7 6 7 8 8 7 7 7 8 8 9 9 9 10 9 9 9 10
3 0 1 4 4 1 1 1 1 2 3 4 4 2 3 4 3 0 4 3 1 1 6 2 6 8 5 6 1 2 4 8 4 5 5 7 6 5 4 4 3 2 3 4 4 4 3 3 3 3 2 2 2 2 2 3 4 4 4 4 6 5 5 7 7 7 6 7 7 7 7 8 8 8 8 9 9 10 9 9 9 9 10 9 9 10
1 7 5 2 2 1 2 1 0 1 2 1 3 2 1 2 3 3 2 3 1 1 6 3 5 10 7 7 1 4 5 9 6 5 7 6 4 5 4 5 3 3 4 4 5 4 4 4 4 2 1 1 2 2 2 4 3 3 3 4 5 5 7 7 7 8 7 8 7 7 7 8 8 7 8 8 9 9 9 9 9 9 9 9 10 10
1 3 2 1 2 3 1 0 2 1 0 1 1 2 1 1 3 2 2 4 5 4 6 4 3 8 3 7 5 7 7 9 7 5 4 6 5 5 3 4 4 4 4 4 5 4 3 4 3 3 1 1 2 2 2 3 3 3 3 3 4 4 5 6 6 6 6 6 6 6 7 8 8 7 8 8 8 8 9 10 10 10 10 9 10 10
1 1 6 1 1 1 1 2 1 1 2 0 1 0 0 3 2 1 1 3 4 5 6 10 4 8 4 4 4 8 7 7 7 5 6 7 6 4 4 5 5 5 4 3 3 3 4 4 3 3 2 2 3 2 1 3 3 4 2 3 4 4 4 5 6 6 7 7 6 7 7 7 6 7 8 8 9 9 9 9 10 10 10 10 9 10
1 2 2 3 3 1 1 0 2 4 1 0 2 2 2 1 1 2 0 2 3 2 2 2 8 7 9 6 4 8 7 6 5 7 6 6 5 3 5 6 5 5 4 3 3 4 4 4 2 2 2 3 3 2 3 4 4 3 2 3 4 4 5 6 6 5 6 7 7 7 8 8 7 9 8 9 9 9 9 9 9 9 9 9 10 10
0 1 3 6 6 0 4 1 1 1 1 2 3 2 4 0 1 2 7 1 1 1 2 0 9 10 12 3 6 6 7 5 5 5 6 6 5 4 5 5 5 4 4 2 4 4 4 3 2 2 3 3 4 3 4 4 3 4 3 2 3 4 4 5 6 5 7 6 6 7 8 8 7 8 8 9 9 9 10 10 9 9 10 10 10 10
1 1 1 6 5 5 1 1 1 0 1 1 3 2 3 2 4 4 0 4 3 3 1 3 0 12 7 4 5 6 4 4 5 4 6 7 5 5 6 4 4 5 4 4 4 4 4 4 3 4 3 3 3 3 3 4 3 3 2 3 3 3 4 4 5 5 6 7 7 8 7 7 8 8 9 9 9 10 10 10 10 9 10 10 10 10
2 1 3 7 7 2 1 1 1 3 0 1 1 1 2 2 4 6 4 2 1 3 1 1 2 12 7 4 5 4 3 4 4 5 7 6 4 5 5 5 4 5 3 4 3 4 4 4 3 4 3 2 2 3 3 3 3 3 2 2 3 3 4 4 4 5 6 7 7 7 7 8 8 9 9 9 9 10 10 10 10 9 10 10 10 10
1 1 1 4 4 6 3 3 1 1 1 1 2 3 2 3 6 2 4 1 0 6 7 5 7 10 7 3 2 4 5 7 8 8 4 5 4 2 4 4 5 3 5 4 4 4 4 3 3 3 2 2 2 2 2 3 3 3 2 3 3 3 3 4 4 5 6 6 8 7 7 8 8 9 10 10 9 11 10 10 10 9 10 10 11 11
0 2 1 2 4 9 11 11 9 8 2 3 0 1 0 8 8 2 1 1 2 4 5 3 8 12 15 8 8 6 7 10 8 6 5 4 4 2 4 4 5 4 4 4 3 4 3 3 3 2 2 2 2 1 2 3 3 3 2 3 2 2 3 3 4 5 6 6 7 7 8 8 8 9 10 10 10 10 10 11 10 10 9 10 11 11
0 1 2 4 5 6 9 8 5 0 4 4 5 2 5 0 2 4 4 4 6 3 3 10 10 17 21 19 13 15 11 12 13 9 6 5 0 3 4 4 4 4 4 3 3 3 3 3 3 3 2 1 2 1 2 3 3 3 2 3 3 2 3 4 4 5 5 6 6 7 8 8 8 9 9 9 10 10 10 10 11 11 11 10 11 11
2 1 4 4 6 9 7 9 8 2 8 10 9 9 4 6 9 7 8 8 4 2 11 6 6 4 15 17 16 16 15 12 11 8 5 3 3 4 5 3 3 3 2 2 3 3 3 3 3 2 1 2 2 1 2 3 2 2 3 3 2 3 3 4 4 4 5 5 5 6 8 7 8 8 9 9 9 9 10 10 11 11 11 10 11 11
1 1 5 4 9 8 10 12 11 6 7 10 7 5 5 6 6 12 12 8 1 4 13 14 3 9 19 19 18 15 13 12 10 9 4 3 2 2 2 3 3 3 1 2 2 3 3 3 3 2 1 2 2 2 3 3 3 3 3 3 3 3 3 3 4 5 5 5 5 6 7 7 7 7 9 9 9 10 10 10 11 11 11 11 11 10
1 3 4 4 8 7 10 8 6 6 4 5 6 8 9 8 12 14 15 6 9 12 16 16 17 20 20 19 18 16 13 10 8 4 3 4 1 3 4 3 2 2 1 1 1 3 3 3 3 2 2 2 2 3 3 3 3 3 3 3 3 3 4 3 4 4 5 5 4 5 6 7 7 8 9 9 10 10 10 10 10 11 11 11 11 11
1 3 1 1 5 11 6 6 1 2 2 9 11 6 7 8 9 12 6 5 5 11 16 18 17 19 19 10 11 11 7 5 5 5 5 3 2 3 3 3 3 2 1 1 1 3 4 3 3 3 2 1 2 2 2 2 2 3 3 3 3 3 3 2 4 4 4 4 4 5 6 6 7 8 9 9 10 10 11 11 10 11 11 11 11 12
0 4 2 1 4 10 4 3 8 5 5 7 13 12 5 4 5 5 5 8 5 12 9 3 7 11 13 1 5 5 5 5 6 7 4 4 2 2 3 3 3 2 1 1 1 3 4 3 3 2 1 2 1 2 2 3 2 1 3 3 3 3 2 3 3 4 4 4 5 5 6 6 8 8 9 9 10 10 11 11 11 11 11 11 12 12
1 1 2 2 3 6 8 4 13 12 6 2 3 4 3 5 4 3 3 4 11 4 4 7 12 12 9 5 10 13 6 7 6 5 5 4 3 3 3 3 3 3 2 2 2 3 4 3 3 2 1 1 0 2 2 1 1 2 2 3 3 2 2 3 3 4 4 4 5 5 6 7 8 8 9 9 10 10 11 10 11 11 12 12 12 11
0 1 0 1 1 6 9 10 6 4 5 4 3 2 2 5 5 5 8 9 10 8 9 7 11 12 12 13 11 13 10 8 5 4 3 4 5 3 3 3 3 3 2 2 3 4 4 4 3 4 3 3 3 2 1 1 1 1 1 2 3 2 2 3 3 3 3 4 5 5 6 7 7 8 9 9 10 10 10 10 10 11 10 10 11 11
1 2 1 1 0 6 7 8 7 3 3 4 3 4 4 4 4 9 11 9 8 8 11 14 17 16 14 11 10 10 8 6 4 6 6 5 3 4 4 4 4 3 2 3 4 4 4 4 4 3 3 2 2 3 1 0 0 0 2 3 3 2 2 3 3 3 3 5 5 5 6 7 7 8 9 9 10 10 10 10 10 11 10 10 10 12
3 2 1 1 2 2 3 3 4 6 8 13 10 2 2 0 1 0 8 9 11 13 12 11 15 12 11 12 10 7 6 6 4 5 5 4 5 5 4 4 4 3 3 4 5 5 5 5 6 4 3 2 3 2 2 2 1 0 2 2 2 1 2 2 3 3 4 5 5 6 6 7 8 8 9 9 9 9 9 10 10 11 10 10 10 10
6 2 2 3 1 2 2 1 9 7 12 7 1 0 1 1 1 0 3 14 5 6 6 7 9 9 9 9 9 6 5 5 6 9 3 5 4 4 6 4 4 4 3 4 5 5 5 5 4 4 4 3 3 4 3 1 0 1 2 2 2 1 2 2 2 3 4 5 5 6 6 6 7 7 8 8 9 10 10 11 11 10 8 10 10 10
1 1 1 1 2 2 2 7 7 7 5 6 5 2 1 1 2 3 2 10 8 7 7 7 7 10 10 9 8 6 4 7 12 5 4 5 5 5 3 3 3 3 4 5 3 4 4 4 4 4 4 4 4 4 2 2 1 1 2 2 1 2 1 2 2 3 4 5 5 6 6 6 6 7 8 8 8 9 9 9 8 9 8 9 10 11
3 3 2 2 3 5 1 1 3 2 8 6 8 5 2 1 5 3 3 10 7 5 6 8 7 8 8 8 10 2 5 9 12 7 4 6 6 5 5 5 5 5 6 7 8 7 6 6 6 5 4 4 4 4 3 2 1 1 2 2 2 1 1 1 2 3 4 4 5 5 5 5 6 6 7 7 8 7 8 9 9 8 8 8 8 9
2 0 1 0 1 3 2 1 5 4 6 7 5 2 3 3 4 3 6 8 3 5 6 4 6 9 9 6 6 3 4 9 12 10 2 7 9 8 7 6 4 5 5 5 4 7 7 6 5 4 5 6 5 5 4 2 2 2 3 2 1 1 1 1 1 2 4 4 5 4 5 5 6 6 6 7 8 7 7 6 7 8 8 8 7 7
1 0 2 7 3 3 5 5 3 8 8 8 8 3 3 2 1 0 6 11 4 5 6 5 7 8 6 6 4 6 8 10 11 8 1 3 3 4 4 4 6 8 8 7 6 6 6 6 6 6 6 5 4 4 3 3 2 3 3 2 1 2 0 1 2 3 3 4 5 5 5 5 5 6 6 5 6 7 7 6 7 7 7 7 7 7
1 2 0 2 3 5 6 5 9 7 10 4 1 5 2 1 3 7 9 4 2 6 6 7 9 7 6 8 7 8 10 8 8 4 2 5 7 6 6 5 4 3 3 5 8 7 6 6 5 5 5 5 5 4 3 3 3 4 3 1 3 1 2 2 2 2 3 5 5 6 5 5 6 4 5 5 5 6 7 7 6 6 6 5 6 8
5 4 4 4 3 1 1 1 6 6 3 5 8 1 1 1 9 7 6 7 5 8 8 7 6 9 5 8 8 9 10 8 7 7 6 6 6 6 7 8 8 8 8 6 5 6 7 6 7 7 7 6 5 5 4 5 6 4 3 3 2 2 2 2 2 2 3 4 5 5 5 5 4 4 4 5 5 5 7 6 6 6 5 6 7 7
4 1 2 4 7 2 3 3 5 9 2 6 5 6 5 12 9 8 5 13 13 6 7 8 6 7 6 7 9 8 8 8 7 6 5 4 6 5 5 6 6 6 6 7 8 9 7 6 6 6 7 6 6 6 5 5 6 4 4 5 2 3 3 2 2 2 2 3 3 4 5 5 5 4 3 4 5 4 5 6 6 6 5 6 6 6
7 5 6 6 4 6 7 9 13 9 2 7 8 12 14 12 6 8 8 11 12 13 5 6 9 7 7 7 8 8 7 6 8 7 5 6 7 7 8 9 10 10 9 9 8 8 8 8 8 6 7 7 8 6 6 6 6 5 6 2 4 3 3 2 2 1 2 3 3 4 5 6 6 5 4 3 2 4 6 6 6 7 6 6 6 6
3 5 1 0 8 4 7 14 16 14 14 14 11 13 14 15 11 8 10 11 11 12 8 9 9 8 7 5 5 6 7 7 6 7 5 5 6 7 6 4 5 6 7 6 5 8 8 6 7 7 8 7 8 7 7 7 7 6 5 3 4 4 4 2 1 1 2 2 3 4 4 6 7 8 7 6 5 5 4 5 6 6 7 7 7 6
3 1 2 5 2 3 9 3 5 14 12 9 15 13 6 9 11 10 8 10 13 12 10 7 9 8 7 5 6 8 8 7 7 8 5 5 6 6 7 8 8 9 10 10 9 8 7 7 7 8 8 9 9 8 7 8 8 7 3 5 5 4 4 3 1 0 1 3 3 3 4 5 5 7 8 6 5 6 6 6 6 6 6 6 7 8
6 1 0 8 4 6 14 14 16 11 5 10 14 13 15 14 12 10 12 11 10 8 6 9 5 6 3 5 7 7 9 7 6 8 6 6 7 6 7 8 8 6 7 8 8 9 8 8 8 8 9 9 8 8 7 7 7 6 5 5 4 4 4 2 1 0 1 2 2 2 3 3 5 6 6 8 7 5 6 7 6 7 7 8 8 7
4 3 7 3 4 10 8 17 22 16 13 18 19 11 11 12 12 12 10 9 7 8 9 6 4 6 4 8 5 6 7 9 8 8 7 7 6 5 7 8 8 9 8 7 8 10 10 9 9 9 9 9 7 7 7 6 6 6 6 6 5 5 4 3 3 0 1 2 1 2 1 1 2 3 4 6 9 9 2 2 7 6 6 7 6 7
3 9 4 1 9 12 11 15 8 8 13 14 10 8 10 9 8 11 9 8 8 8 9 8 9 5 6 7 7 7 9 9 8 6 8 8 8 7 6 7 7 7 8 8 8 9 8 7 9 8 9 8 6 7 7 6 6 6 6 6 5 6 5 4 2 1 1 1 1 0 1 2 3 3 3 4 5 8 12 11 12 8 6 5 11 15
9 11 7 7 6 12 15 15 7 7 11 17 17 11 8 7 4 7 12 13 12 9 8 7 10 10 7 8 6 8 9 9 10 6 7 7 8 8 8 8 8 7 8 8 8 8 8 9 8 7 7 8 7 7 6 6 5 7 6 7 7 7 5 5 3 1 1 1 0 0 0 1 3 3 3 2 2 5 5 10 13 14 13 13 13 13
Wind_Direction
334 67 52 41 320 304 286 273 226 243 226 132 82 93 158 152 292 278 249 226 124 37 249 236 251 247 251 220 217 202 202 189 264 68 333 323 331 320 278 297 287 14 354 0 60 45 59 47 41 32 22 12 13 22 19 12 9 10 4 357 4 359 356 358 5 3 353 351 351 357 358 354 350 351 351 352 354 351 349 351 356 350 354 353 351 351
62 77 17 334 296 313 296 315 334 1 58 87 97 82 98 44 287 250 233 260 348 108 289 355 341 279 250 252 217 199 170 221 210 193 333 301 316 291 263 293 24 348 327 7 16 22 44 40 40 28 19 13 18 18 19 16 3 3 4 3 359 357 1 3 12 1 353 352 353 350 350 352 346 348 351 350 351 348 344 351 356 351 352 355 352 352
44 45 311 303 346 36 32 30 38 86 15 29 103 163 69 306 236 293 1 16 223 80 262 1 1 298 275 256 220 178 193 207 198 150 202 301 312 284 272 12 16 5 344 351 357 13 33 42 36 28 13 18 28 22 19 14 359 4 4 5 1 0 1 2 8 2 353 351 351 354 347 351 344 342 344 343 343 339 339 352 354 354 355 354 350 352
48 344 325 290 65 41 25 25 36 38 54 45 22 46 233 255 65 311 296 320 236 165 264 9 337 287 306 271 203 207 186 194 183 148 185 269 283 321 342 85 37 359 349 356 360 357 10 38 30 20 17 20 28 22 15 11 1 5 4 6 3 3 360 1 5 359 350 347 347 348 345 343 343 339 340 340 340 340 344 357 352 355 356 355 352 353
123 270 295 1 32 67 38 13 38 43 25 351 101 114 343 332 289 177 259 305 317 332 46 329 321 308 333 35 197 267 302 150 196 164 14 343 291 314 341 56 33 12 355 15 0 353 17 29 22 22 21 32 30 18 12 8 4 11 3 7 1 2 357 2 360 357 348 346 349 343 340 333 330 333 343 344 352 350 351 351 351 352 356 356 353 353
32 340 306 44 34 57 58 29 15 75 24 320 238 157 233 199 276 323 323 16 15 349 329 83 359 294 298 287 213 243 95 211 288 274 307 299 294 335 346 14 332 350 25 50 3 10 34 34 16 21 28 36 26 17 8 6 10 10 3 5 0 2 359 2 359 356 353 352 355 351 354 355 357 354 357 358 354 350 355 354 344 344 351 353 351 351
22 331 58 29 75 37 50 49 288 98 178 76 315 168 177 178 135 12 343 55 10 13 290 90 91 287 322 291 246 240 196 240 297 240 270 279 291 322 316 219 324 353 27 12 357 35 45 24 29 25 35 33 32 10 5 7 13 10 2 2 1 359 1 0 357 357 354 354 0 357 357 354 352 347 349 348 346 345 348 348 345 343 346 349 347 347
14 354 11 29 42 32 28 18 304 33 85 12 234 137 132 114 134 121 101 112 209 260 294 27 131 277 312 284 237 236 154 215 244 279 271 270 287 295 307 239 291 23 90 57 328 60 53 35 43 38 38 38 31 9 3 7 9 9 0 2 359 359 4 1 354 358 358 356 357 354 357 355 354 353 344 343 345 345 347 346 345 341 344 344 345 345
72 340 20 18 27 28 6 246 284 111 141 242 210 162 206 177 175 98 97 103 218 67 313 323 350 20 274 265 282 237 238 261 271 260 265 266 275 281 299 248 252 130 139 117 52 85 57 34 31 48 50 41 29 9 1 14 9 5 357 358 358 358 3 359 356 357 357 357 355 354 354 354 352 350 344 341 342 340 346 343 343 341 339 340 342 342
309 102 57 97 75 340 262 276 252 176 18 280 177 95 107 88 71 106 92 77 340 60 298 285 275 60 285 276 313 342 270 274 263 267 262 252 258 274 290 254 250 202 152 306 92 114 60 39 36 65 71 44 18 4 4 16 9 3 356 356 359 359 1 357 355 356 355 356 355 354 357 356 349 349 342 345 343 343 344 342 342 340 339 339 339 341
168 24 137 94 32 234 257 267 221 213 235 247 117 108 33 45 55 32 77 97 49 30 262 241 310 117 298 273 216 185 234 203 260 290 279 277 288 283 282 236 220 210 209 80 109 99 68 14 45 68 66 31 18 11 14 10 8 359 354 352 360 355 358 355 353 355 354 355 358 353 357 356 350 349 344 345 345 343 344 344 341 342 339 336 338 338
0 349 45 260 190 291 181 308 7 275 268 43 18 12 25 3 27 31 353 45 75 305 256 243 207 190 263 294 285 240 258 208 208 252 270 272 258 266 284 248 229 212 207 106 115 80 48 14 23 48 42 24 22 18 12 3 3 356 349 355 357 355 359 355 351 353 355 354 357 354 357 356 351 349 347 346 342 344 342 341 339 338 335 337 334 338
358 15 296 316 229 27 343 52 327 7 11 29 17 15 69 304 29 342 10 9 16 255 262 211 348 8 239 227 264 266 237 254 227 221 242 244 251 266 282 238 227 215 201 112 133 115 57 43 42 39 30 29 26 12 6 358 357 347 349 353 360 354 358 356 350 354 351 354 355 353 355 357 350 349 348 344 339 341 340 337 336 338 337 335 336 339
284 291 0 311 13 357 62 67 328 6 351 20 32 36 63 29 27 355 283 230 326 303 279 285 229 206 251 290 240 220 235 220 224 228 233 219 230 258 266 227 231 233 166 134 143 127 99 59 59 68 50 36 18 4 1 356 354 343 345 346 360 349 356 354 352 351 353 352 352 352 355 353 350 347 347 344 339 339 337 336 334 335 336 333 335 334
44 351 313 27 5 18 52 130 187 206 291 274 195 104 138 129 136 359 303 347 265 245 287 311 53 259 341 265 226 209 217 229 232 235 232 231 233 240 251 200 224 221 144 142 152 144 140 107 104 91 72 38 13 6 358 0 348 344 346 348 354 352 355 359 351 352 352 348 347 352 353 352 348 343 343 341 339 338 336 336 333 333 332 332 331 333
229 224 255 196 212 37 141 238 126 104 72 260 142 95 52 339 142 153 205 199 276 327 325 330 216 246 243 247 260 248 283 295 271 261 253 253 255 265 220 198 220 208 146 165 159 164 177 118 115 102 93 37 42 5 6 358 348 356 344 349 353 349 352 356 351 349 348 344 344 350 353 350 345 342 341 337 338 334 335 332 334 331 331 331 330 329
17 294 295 309 28 97 194 182 274 148 50 300 53 18 242 190 112 324 334 252 270 27 258 216 331 307 304 325 323 317 316 284 299 266 249 246 253 268 255 214 213 201 157 178 179 184 182 117 118 130 102 61 60 42 20 357 352 356 350 353 352 349 354 354 350 345 344 342 345 347 351 347 344 343 342 337 333 334 333 332 332 331 329 330 333 329
135 263 290 105 290 260 219 176 167 297 135 50 49 251 130 125 125 124 236 324 52 142 268 353 292 300 14 308 307 329 301 283 294 265 232 245 260 273 243 205 191 196 186 185 187 191 168 142 141 143 123 83 93 94 32 3 349 354 358 354 352 351 351 353 350 345 344 344 345 345 345 344 342 341 338 334 331 333 331 332 332 330 330 334 333 331
103 347 302 215 212 271 339 62 354 310 30 135 162 204 68 317 359 311 92 357 354 330 293 305 268 275 188 260 329 311 306 295 291 273 266 266 267 267 211 196 202 175 174 182 189 185 147 131 141 155 133 88 96 95 55 2 356 355 360 344 360 344 345 348 346 341 339 342 341 341 340 338 339 341 338 332 331 331 331 332 332 331 329 329 335 331
11 156 295 317 112 324 3 63 269 281 331 41 30 9 276 106 190 35 192 183 130 270 15 294 7 291 227 221 234 275 280 288 288 295 271 256 254 253 204 197 199 188 186 217 176 180 155 156 163 159 140 96 96 100 31 17 5 360 332 359 347 345 348 347 346 342 341 338 339 335 336 335 335 338 337 335 334 333 333 331 332 332 331 335 330 330
272 138 257 275 304 325 298 147 203 154 153 342 29 337 351 314 214 125 252 150 171 203 194 263 319 277 271 214 229 258 270 278 268 277 275 264 257 215 203 195 199 192 188 223 158 167 165 166 166 145 121 83 84 91 33 21 358 333 353 359 344 354 344 346 341 346 339 336 334 336 336 336 338 336 335 334 334 334 331 331 332 332 330 329 332 329
41 3 234 310 357 269 231 249 190 150 161 170 157 204 171 110 33 42 289 2 75 109 246 326 273 274 278 226 220 236 259 263 267 249 271 269 264 201 209 203 187 188 215 180 149 157 172 180 176 129 94 71 63 43 19 358 2 343 348 334 349 352 345 340 344 346 340 335 331 334 333 335 335 336 334 334 335 335 334 332 334 331 331 332 329 329
139 183 88 293 230 246 240 219 187 117 157 184 137 239 164 144 114 100 234 281 356 247 171 179 230 272 239 252 208 225 257 275 280 263 266 268 257 212 210 191 186 188 198 143 156 175 179 178 161 132 116 89 74 49 17 358 346 331 328 356 340 353 333 339 340 342 338 332 331 332 332 335 338 336 335 335 336 335 335 333 332 334 332 332 329 329
73 91 354 280 300 309 313 310 337 46 58 332 325 97 100 186 177 176 177 184 208 303 342 311 214 262 283 230 219 227 260 273 279 262 257 260 263 216 195 174 182 210 125 142 169 177 175 164 137 102 86 76 69 37 10 341 335 330 341 336 343 342 330 341 348 342 339 330 330 331 334 338 336 337 336 337 337 334 335 334 333 332 333 332 331 331
40 281 120 302 346 330 341 355 354 340 60 173 215 234 173 87 73 133 105 50 280 232 185 131 247 279 274 220 232 299 319 330 316 305 238 252 278 214 171 184 191 178 138 169 172 159 153 126 105 129 129 116 73 48 353 348 337 335 335 341 339 330 335 347 347 345 334 331 330 334 339 337 337 338 337 337 335 334 334 334 333 333 334 335 334 333
125 243 85 29 13 352 338 338 325 323 257 243 109 107 352 137 134 112 234 61 165 275 145 176 257 261 286 301 309 311 320 321 315 308 297 259 271 160 173 189 197 165 165 183 176 136 145 160 146 131 118 89 83 67 5 348 339 336 345 338 334 356 348 346 349 339 332 332 332 335 339 336 339 339 336 336 335 335 335 334 335 334 336 338 334 333
145 291 181 166 155 200 221 234 234 49 341 309 263 162 217 101 176 114 112 127 210 234 216 240 235 284 294 300 314 315 326 320 319 324 320 313 317 176 186 186 196 169 175 178 148 152 135 122 142 148 133 115 76 67 25 351 344 338 346 343 343 346 356 349 345 334 332 328 332 336 337 338 339 337 337 334 334 334 335 336 335 337 337 338 336 334
69 330 260 201 229 235 236 258 264 300 268 270 270 269 205 178 174 159 174 221 184 36 292 242 225 255 279 296 303 308 313 316 309 318 309 308 182 192 194 204 201 141 172 118 110 138 163 168 164 156 136 65 33 47 14 1 335 334 342 340 340 346 358 345 338 330 327 327 331 337 336 337 336 336 334 333 333 334 335 335 336 336 336 338 338 337
141 210 274 129 252 244 253 259 276 283 243 249 239 236 229 201 159 190 232 217 137 228 246 271 286 294 284 288 291 294 297 295 295 295 280 246 193 190 180 198 209 185 165 99 138 160 163 168 175 174 98 50 13 359 349 348 338 335 334 347 343 354 344 332 338 327 322 324 331 336 336 335 337 335 333 334 335 336 337 338 338 337 337 338 337 337
89 254 241 204 284 275 273 261 262 226 272 275 237 232 229 185 209 210 236 211 193 236 252 269 285 276 272 274 282 285 285 285 285 273 296 358 299 201 201 215 222 196 167 141 179 181 182 167 170 146 98 47 346 346 337 336 336 324 330 337 340 345 326 345 333 325 319 324 332 335 335 336 336 334 334 335 337 338 338 338 338 339 339 339 338 337
125 276 342 324 348 302 298 311 316 204 207 289 282 221 230 221 233 232 244 252 218 272 265 265 276 281 274 259 262 267 274 285 294 317 320 276 241 209 212 231 232 194 175 184 178 182 175 162 155 133 95 40 352 323 315 318 323 322 332 335 328 323 316 339 332 321 319 323 338 336 335 338 336 336 336 335 335 338 338 338 339 337 338 340 341 340
72 266 39 64 17 301 309 353 304 307 268 243 282 294 251 199 247 227 190 212 168 230 259 315 289 270 281 272 252 264 283 307 307 304 304 305 265 204 214 236 228 194 178 194 188 169 170 162 152 126 108 0 281 305 319 316 306 324 317 311 317 303 319 343 324 319 318 331 338 340 340 339 336 335 334 335 337 337 336 335 334 336 337 334 336 337
175 115 11 23 355 254 271 336 317 321 343 0 294 241 196 212 215 259 254 192 214 194 300 277 261 267 286 321 320 308 319 309 308 293 300 297 253 210 226 224 211 193 181 191 181 176 171 164 157 147 136 154 154 278 274 262 332 312 290 310 289 305 336 329 322 317 328 336 343 339 344 341 337 335 334 336 337 337 334 335 336 336 337 337 335 330
80 115 248 167 241 262 300 321 322 8 19 275 231 177 176 254 209 229 260 218 232 167 221 215 257 290 303 302 300 295 306 298 281 263 236 259 285 233 226 198 195 183 185 171 161 160 168 163 156 157 166 171 190 194 204 177 187 253 269 290 300 309 312 346 325 326 336 342 341 342 345 343 338 336 334 335 337 336 333 335 337 335 333 332 332 336
145 107 229 135 199 278 317 340 20 29 250 231 274 260 204 235 177 209 251 268 261 234 254 277 276 275 278 279 271 275 271 271 271 281 294 276 212 197 206 207 197 190 207 166 162 172 181 176 168 161 147 160 199 200 175 274 254 273 319 307 301 303 348 343 327 339 346 341 339 345 345 344 342 337 337 338 339 338 335 337 336 337 338 336 337 338
157 141 221 319 177 330 28 29 7 251 271 300 302 286 244 107 148 102 293 256 244 248 235 248 258 267 271 277 281 265 276 288 291 263 256 240 189 181 183 206 216 189 199 194 176 182 176 178 172 173 176 142 170 188 181 202 208 287 275 277 289 310 342 343 339 347 348 339 341 343 345 346 343 339 339 339 339 338 338 337 339 337 338 336 336 337
142 115 100 291 173 222 216 188 236 307 319 325 15 203 156 225 258 92 265 293 235 231 202 236 265 269 273 274 275 294 314 329 311 295 248 196 203 197 179 201 186 196 186 187 167 183 184 164 148 145 142 159 174 185 208 202 183 257 279 285 292 325 337 355 354 349 345 336 338 341 344 346 344 339 336 338 339 339 340 340 339 337 338 337 341 341
115 150 243 106 295 129 335 330 337 6 334 278 243 269 293 188 148 161 106 283 288 251 222 222 242 261 280 284 288 296 354 337 307 290 242 225 208 195 219 196 181 170 163 163 150 141 147 147 143 146 162 187 192 186 177 180 187 258 264 272 284 325 330 11 350 348 339 336 337 336 340 344 343 335 334 336 337 336 334 335 333 333 338 341 342 342
68 85 121 137 264 24 44 192 243 205 255 236 260 243 236 140 132 125 27 282 272 227 220 193 241 263 261 275 282 359 1 319 296 297 258 200 215 201 193 212 187 175 169 164 162 163 167 168 161 163 178 197 204 170 169 170 196 250 266 263 279 293 356 7 350 348 338 335 333 331 339 339 335 333 332 333 330 330 331 334 332 330 334 339 341 339
57 17 60 347 249 205 155 196 257 212 253 263 227 227 226 141 102 61 333 283 261 230 224 208 245 263 270 252 247 231 241 285 296 303 204 194 195 196 189 203 186 172 179 172 173 170 167 160 152 174 192 206 206 159 171 168 183 232 254 265 273 297 8 15 2 347 345 334 330 327 333 337 332 332 332 330 328 326 324 323 325 331 335 337 340 338
142 294 139 211 181 216 181 264 317 287 270 264 272 212 187 158 88 258 273 279 251 222 237 219 251 256 249 263 193 255 220 223 258 281 210 177 164 224 226 201 185 177 173 172 171 149 156 169 174 181 196 206 181 168 175 181 200 238 237 230 275 261 132 73 34 4 341 335 328 331 336 334 333 328 326 325 321 321 320 325 326 330 336 334 336 336
288 131 306 90 211 212 199 185 235 253 248 183 329 144 180 89 305 269 239 218 229 268 249 224 255 252 238 240 234 229 254 248 258 289 217 190 198 204 193 172 134 137 154 162 157 159 162 170 175 182 191 186 170 182 188 184 220 241 227 222 246 199 108 77 48 19 351 337 330 330 333 328 327 325 318 320 323 322 322 321 324 327 327 326 328 327
210 141 212 197 214 93 79 304 329 317 282 139 134 83 200 170 231 226 280 284 234 265 276 267 218 257 218 263 239 243 259 269 263 257 235 222 204 206 183 173 170 165 161 156 175 187 165 172 186 193 194 189 183 185 201 202 229 236 227 235 216 133 108 101 63 34 354 336 329 329 325 320 323 323 320 321 321 324 323 321 325 325 326 328 324 320
203 146 254 253 179 179 161 176 217 219 202 187 150 266 210 211 256 280 283 290 291 259 264 274 253 236 234 232 260 258 251 260 281 271 261 238 226 219 195 190 187 175 174 184 179 181 180 179 185 192 191 188 189 195 198 207 230 237 226 241 160 123 109 84 73 42 3 332 329 325 322 320 319 319 321 312 321 327 323 325 325 326 324 323 321 318
202 186 187 247 225 164 208 221 251 262 181 207 202 247 256 253 251 261 266 264 279 285 229 241 264 254 227 237 248 248 265 246 248 258 250 237 214 208 201 198 190 188 185 184 191 179 180 181 185 188 190 193 197 194 201 205 220 226 235 206 135 131 113 91 74 44 356 333 328 326 317 323 325 330 332 333 337 339 332 333 340 337 328 320 326 321
263 200 187 213 255 278 263 241 262 284 277 269 243 239 260 275 274 260 256 269 265 256 256 254 264 262 261 226 238 256 232 255 258 267 254 246 222 222 212 199 193 186 184 177 170 176 184 178 177 186 202 201 199 202 204 212 195 218 222 149 138 124 113 103 75 26 335 323 331 317 324 332 334 337 338 345 348 346 337 331 334 331 324 325 324 321
262 170 167 226 268 7 275 277 221 248 262 266 267 273 247 242 257 264 268 253 260 267 267 247 246 254 243 227 221 246 256 249 255 260 252 246 228 216 202 199 196 184 180 187 188 166 168 173 180 197 204 213 205 203 210 214 214 208 166 150 135 124 115 105 102 9 334 327 321 321 328 341 339 333 332 338 348 344 335 341 331 326 325 329 333 331
315 190 203 246 242 212 250 269 272 260 237 267 269 277 282 275 264 257 245 252 257 266 256 257 243 259 231 242 229 236 255 254 246 259 251 235 225 215 207 202 199 197 199 185 171 174 173 181 189 198 204 218 212 204 209 215 216 186 160 147 136 128 115 116 133 213 292 303 302 302 306 326 340 337 330 326 331 343 339 332 326 324 334 335 327 327
197 106 251 179 223 261 288 280 267 283 273 259 263 265 248 257 267 272 266 262 270 272 271 271 217 235 213 242 236 233 255 260 240 241 242 239 230 223 213 208 203 199 185 177 179 175 183 187 194 202 206 218 204 200 207 215 202 154 162 153 141 137 129 140 146 148 283 273 284 303 297 330 325 321 322 322 325 323 315 291 313 328 325 321 317 347
88 242 206 357 289 279 260 270 297 326 305 296 269 227 255 252 238 259 283 296 282 274 273 275 279 252 243 251 242 226 235 253 251 225 235 232 225 220 215 211 204 194 192 188 172 183 189 192 193 199 208 215 195 196 205 208 193 150 155 145 146 140 145 150 140 174 249 251 253 319 347 333 334 322 326 323 324 327 326 329 345 348 335 321 359 8
198 222 140 198 186 261 269 267 251 218 263 263 277 282 255 253 264 282 282 286 287 267 259 265 278 289 275 261 227 218 233 237 249 226 232 237 233 217 208 197 192 193 189 174 168 187 194 197 196 198 207 206 189 198 202 204 170 143 156 153 153 150 153 149 159 186 225 234 147 279 286 328 327 316 313 305 320 327 330 326 329 340 354 7 8 13